Location: Anuling
(14.1239°N, 120.8922°E)
Time: 13:07:13
(UTC+00:00)

Cosmos 2218 Rocket - Pass Details

Date: 19 April 2026
Orbit: 955 x 1005 km, 82.9° (Epoch: 11 May)

Event Time Altitude Azimuth Distance (km) Brightness Sun altitude
Rises 12:59:10 0° 228° (SW) 3,635 7.2 -39.4°
Reaches altitude 10° 13:03:43 10° 260° (W) 2,682 6.7 -40.4°
Maximum altitude 13:05:41 12° 279° (W) 2,566 6.8 -40.8°
Drops below altitude 10° 13:07:39 10° 298° (WNW) 2,679 7.0 -41.2°
Sets 13:12:15 0° 330° (NNW) 3,624 7.6 -42.2°
